Time,TemperatureF,DewpointF,PressureIn,WindDirection,WindDirectionDegrees,WindSpeedMPH,WindSpeedGustMPH,Humidity,HourlyPrecipIn,Conditions,Clouds,dailyrainin,SolarRadiationWatts/m^2,SoftwareType,DateUTC
2013-09-28 00:22:00,41.0,30.0,-100.00,NE,55,2.0,13.0,65,0.00,,,0.00,0.000000,,2013-09-28 06:22:00,
2013-09-28 00:32:00,41.0,30.0,-100.00,NE,55,2.0,13.0,65,0.00,,,0.00,0.000000,,2013-09-28 06:32:00,
2013-09-28 00:42:00,41.0,30.0,-100.00,NE,55,2.0,13.0,65,0.00,,,0.00,0.000000,,2013-09-28 06:42:00,
2013-09-28 00:52:00,41.0,30.0,-100.00,NE,55,2.0,13.0,65,0.00,,,0.00,0.000000,,2013-09-28 06:52:00,
2013-09-28 01:22:00,41.0,31.0,-100.00,West,268,4.0,13.0,66,0.00,,,0.00,0.000000,,2013-09-28 07:22:00,
2013-09-28 01:32:00,41.0,31.0,-100.00,West,268,4.0,13.0,66,0.00,,,0.00,0.000000,,2013-09-28 07:32:00,
2013-09-28 01:42:00,41.0,31.0,-100.00,West,268,4.0,13.0,66,0.00,,,0.00,0.000000,,2013-09-28 07:42:00,
2013-09-28 01:52:00,41.0,31.0,-100.00,West,268,4.0,13.0,66,0.00,,,0.00,0.000000,,2013-09-28 07:52:00,
2013-09-28 02:21:00,41.0,31.0,-100.00,SW,214,4.0,15.0,68,0.00,,,0.00,0.000000,,2013-09-28 08:21:00,
2013-09-28 02:32:00,41.0,31.0,-100.00,SW,214,4.0,15.0,68,0.00,,,0.00,0.000000,,2013-09-28 08:32:00,
2013-09-28 02:42:00,41.0,31.0,-100.00,SW,214,4.0,15.0,68,0.00,,,0.00,0.000000,,2013-09-28 08:42:00,
2013-09-28 02:53:00,41.0,31.0,-100.00,SW,214,4.0,15.0,68,0.00,,,0.00,0.000000,,2013-09-28 08:53:00,
2013-09-28 03:22:00,42.0,33.0,-100.00,ESE,104,2.0,11.0,70,0.00,,,0.00,0.000000,,2013-09-28 09:22:00,
2013-09-28 03:33:00,42.0,33.0,-100.00,ESE,104,2.0,11.0,70,0.00,,,0.00,0.000000,,2013-09-28 09:33:00,
2013-09-28 03:43:00,42.0,33.0,-100.00,ESE,104,2.0,11.0,70,0.00,,,0.00,0.000000,,2013-09-28 09:43:00,
2013-09-28 03:53:00,42.0,33.0,-100.00,ESE,104,2.0,11.0,70,0.00,,,0.00,0.000000,,2013-09-28 09:53:00,
2013-09-28 04:22:00,42.0,33.0,-100.00,WSW,246,3.0,11.0,71,0.00,,,0.00,0.000000,,2013-09-28 10:22:00,
2013-09-28 04:32:00,42.0,33.0,-100.00,WSW,246,3.0,11.0,71,0.00,,,0.00,0.000000,,2013-09-28 10:32:00,
2013-09-28 04:42:00,42.0,33.0,-100.00,WSW,246,3.0,11.0,71,0.00,,,0.00,0.000000,,2013-09-28 10:42:00,
2013-09-28 04:52:00,42.0,33.0,-100.00,WSW,246,3.0,11.0,71,0.00,,,0.00,0.000000,,2013-09-28 10:52:00,
2013-09-28 05:22:00,41.0,33.0,-100.00,SW,218,4.0,12.0,72,0.00,,,0.00,0.000000,,2013-09-28 11:22:00,
2013-09-28 05:33:00,41.0,33.0,-100.00,SW,218,4.0,12.0,72,0.00,,,0.00,0.000000,,2013-09-28 11:33:00,
2013-09-28 05:42:00,41.0,33.0,-100.00,SW,218,4.0,12.0,72,0.00,,,0.00,0.000000,,2013-09-28 11:42:00,
2013-09-28 05:52:00,41.0,33.0,-100.00,SW,218,4.0,12.0,72,0.00,,,0.00,0.000000,,2013-09-28 11:52:00,
2013-09-28 06:22:00,41.0,33.0,-100.00,SSW,208,4.0,12.0,72,0.00,,,0.00,0.000000,,2013-09-28 12:22:00,
2013-09-28 06:32:00,41.0,33.0,-100.00,SSW,208,4.0,12.0,72,0.00,,,0.00,0.000000,,2013-09-28 12:32:00,
2013-09-28 06:42:00,41.0,33.0,-100.00,SSW,208,4.0,12.0,72,0.00,,,0.00,0.000000,,2013-09-28 12:42:00,
2013-09-28 06:52:00,41.0,33.0,-100.00,SSW,208,4.0,12.0,72,0.00,,,0.00,0.000000,,2013-09-28 12:52:00,
2013-09-28 07:22:00,43.0,35.0,-100.00,South,188,5.0,13.0,72,0.00,,,0.00,0.000000,,2013-09-28 13:22:00,
2013-09-28 07:32:00,43.0,35.0,-100.00,South,188,5.0,13.0,72,0.00,,,0.00,0.000000,,2013-09-28 13:32:00,
2013-09-28 07:42:00,43.0,35.0,-100.00,South,188,5.0,13.0,72,0.00,,,0.00,0.000000,,2013-09-28 13:42:00,
2013-09-28 07:52:00,43.0,35.0,-100.00,South,188,5.0,13.0,72,0.00,,,0.00,0.000000,,2013-09-28 13:52:00,
2013-09-28 08:21:00,42.0,34.0,-100.00,South,190,7.0,12.0,72,0.00,,,0.00,3.000000,,2013-09-28 14:21:00,
2013-09-28 08:32:00,42.0,34.0,-100.00,South,190,7.0,12.0,72,0.00,,,0.00,3.000000,,2013-09-28 14:32:00,
2013-09-28 08:42:00,42.0,34.0,-100.00,South,190,7.0,12.0,72,0.00,,,0.00,3.000000,,2013-09-28 14:42:00,
2013-09-28 08:52:00,42.0,34.0,-100.00,South,190,7.0,12.0,72,0.00,,,0.00,3.000000,,2013-09-28 14:52:00,
2013-09-28 09:22:00,45.0,35.0,-100.00,SSW,213,3.0,16.0,69,0.00,,,0.00,62.000000,,2013-09-28 15:22:00,
2013-09-28 09:34:00,45.0,35.0,-100.00,SSW,213,3.0,16.0,69,0.00,,,0.00,62.000000,,2013-09-28 15:34:00,
2013-09-28 09:44:00,45.0,35.0,-100.00,SSW,213,3.0,16.0,69,0.00,,,0.00,62.000000,,2013-09-28 15:44:00,
2013-09-28 09:54:00,45.0,35.0,-100.00,SSW,213,3.0,16.0,69,0.00,,,0.00,62.000000,,2013-09-28 15:54:00,
2013-09-28 10:24:00,45.0,34.0,-100.00,South,190,4.0,13.0,65,0.00,,,0.00,135.000000,,2013-09-28 16:24:00,
2013-09-28 10:34:00,45.0,34.0,-100.00,South,190,4.0,13.0,65,0.00,,,0.00,135.000000,,2013-09-28 16:34:00,
2013-09-28 10:43:00,45.0,34.0,-100.00,South,190,4.0,13.0,65,0.00,,,0.00,135.000000,,2013-09-28 16:43:00,
2013-09-28 10:54:00,45.0,34.0,-100.00,South,190,4.0,13.0,65,0.00,,,0.00,135.000000,,2013-09-28 16:54:00,
2013-09-28 11:23:00,48.0,36.0,-100.00,West,265,4.0,15.0,62,0.00,,,-99.99,243.000000,,2013-09-28 17:23:00,
2013-09-28 11:34:00,48.0,36.0,-100.00,West,265,4.0,15.0,62,0.00,,,-99.99,243.000000,,2013-09-28 17:34:00,
2013-09-28 11:43:00,48.0,36.0,-100.00,West,265,4.0,15.0,62,0.00,,,-99.99,243.000000,,2013-09-28 17:43:00,
2013-09-28 11:52:00,48.0,36.0,-100.00,West,265,4.0,15.0,62,0.00,,,-99.99,243.000000,,2013-09-28 17:52:00,
2013-09-28 12:22:00,51.0,36.0,-100.00,WSW,248,7.0,20.0,56,0.00,,,0.00,629.000000,,2013-09-28 18:22:00,
2013-09-28 12:32:00,51.0,36.0,-100.00,WSW,248,7.0,20.0,56,0.00,,,0.00,629.000000,,2013-09-28 18:32:00,
2013-09-28 12:42:00,51.0,36.0,-100.00,WSW,248,7.0,20.0,56,0.00,,,0.00,629.000000,,2013-09-28 18:42:00,
2013-09-28 12:52:00,51.0,36.0,-100.00,WSW,248,7.0,20.0,56,0.00,,,0.00,629.000000,,2013-09-28 18:52:00,
2013-09-28 13:21:00,50.0,37.0,-100.00,SW,221,6.0,20.0,60,0.00,,,0.00,282.000000,,2013-09-28 19:21:00,
2013-09-28 13:32:00,50.0,37.0,-100.00,SW,221,6.0,20.0,60,0.00,,,0.00,282.000000,,2013-09-28 19:32:00,
2013-09-28 13:42:00,50.0,37.0,-100.00,SW,221,6.0,20.0,60,0.00,,,0.00,282.000000,,2013-09-28 19:42:00,
2013-09-28 13:52:00,50.0,37.0,-100.00,SW,221,6.0,20.0,60,0.00,,,0.00,282.000000,,2013-09-28 19:52:00,
2013-09-28 14:22:00,52.0,36.0,-100.00,WNW,295,5.0,19.0,55,0.00,,,0.00,244.000000,,2013-09-28 20:22:00,
2013-09-28 14:33:00,52.0,36.0,-100.00,WNW,295,5.0,19.0,55,0.00,,,0.00,244.000000,,2013-09-28 20:33:00,
2013-09-28 14:43:00,52.0,36.0,-100.00,WNW,295,5.0,19.0,55,0.00,,,0.00,244.000000,,2013-09-28 20:43:00,
2013-09-28 14:52:00,52.0,36.0,-100.00,WNW,295,5.0,19.0,55,0.00,,,0.00,244.000000,,2013-09-28 20:52:00,
2013-09-28 15:22:00,52.0,37.0,-100.00,NE,40,5.0,17.0,57,0.00,,,-99.99,229.000000,,2013-09-28 21:22:00,
2013-09-28 15:34:00,52.0,37.0,-100.00,NE,40,5.0,17.0,57,0.00,,,-99.99,229.000000,,2013-09-28 21:34:00,
2013-09-28 15:44:00,52.0,37.0,-100.00,NE,40,5.0,17.0,57,0.00,,,-99.99,229.000000,,2013-09-28 21:44:00,
2013-09-28 15:55:00,52.0,37.0,-100.00,NE,40,5.0,17.0,57,0.00,,,-99.99,229.000000,,2013-09-28 21:55:00,
2013-09-28 16:23:00,52.0,37.0,-100.00,SW,221,8.0,19.0,56,0.00,,,0.00,298.000000,,2013-09-28 22:23:00,
2013-09-28 16:33:00,52.0,37.0,-100.00,SW,221,8.0,19.0,56,0.00,,,0.00,298.000000,,2013-09-28 22:33:00,
2013-09-28 16:43:00,52.0,37.0,-100.00,SW,221,8.0,19.0,56,0.00,,,0.00,298.000000,,2013-09-28 22:43:00,
2013-09-28 16:53:00,52.0,37.0,-100.00,SW,221,8.0,19.0,56,0.00,,,0.00,298.000000,,2013-09-28 22:53:00,
2013-09-28 17:22:00,51.0,36.0,-100.00,WSW,244,7.0,20.0,56,0.00,,,0.00,182.000000,,2013-09-28 23:22:00,
2013-09-28 17:34:00,51.0,36.0,-100.00,WSW,244,7.0,20.0,56,0.00,,,0.00,182.000000,,2013-09-28 23:34:00,
2013-09-28 17:43:00,51.0,36.0,-100.00,WSW,244,7.0,20.0,56,0.00,,,0.00,182.000000,,2013-09-28 23:43:00,
2013-09-28 17:52:00,51.0,36.0,-100.00,WSW,244,7.0,20.0,56,0.00,,,0.00,182.000000,,2013-09-28 23:52:00,
2013-09-28 18:22:00,51.0,37.0,-100.00,North,1,4.0,18.0,59,0.00,,,0.00,83.000000,,2013-09-29 00:22:00,
2013-09-28 18:32:00,51.0,37.0,-100.00,North,1,4.0,18.0,59,0.00,,,0.00,83.000000,,2013-09-29 00:32:00,
2013-09-28 18:43:00,51.0,37.0,-100.00,North,1,4.0,18.0,59,0.00,,,0.00,83.000000,,2013-09-29 00:43:00,
2013-09-28 18:52:00,51.0,37.0,-100.00,North,1,4.0,18.0,59,0.00,,,0.00,83.000000,,2013-09-29 00:52:00,
2013-09-28 19:21:00,50.0,37.0,-100.00,SSW,211,3.0,16.0,61,0.00,,,0.00,53.000000,,2013-09-29 01:21:00,
2013-09-28 19:32:00,50.0,37.0,-100.00,SSW,211,3.0,16.0,61,0.00,,,0.00,53.000000,,2013-09-29 01:32:00,
2013-09-28 19:43:00,50.0,37.0,-100.00,SSW,211,3.0,16.0,61,0.00,,,0.00,53.000000,,2013-09-29 01:43:00,
2013-09-28 19:52:00,50.0,37.0,-100.00,SSW,211,3.0,16.0,61,0.00,,,0.00,53.000000,,2013-09-29 01:52:00,
2013-09-28 20:22:00,51.0,39.0,-100.00,South,184,2.0,13.0,64,0.00,,,0.00,2.000000,,2013-09-29 02:22:00,
2013-09-28 20:32:00,51.0,39.0,-100.00,South,184,2.0,13.0,64,0.00,,,0.00,2.000000,,2013-09-29 02:32:00,
2013-09-28 20:43:00,51.0,39.0,-100.00,South,184,2.0,13.0,64,0.00,,,0.00,2.000000,,2013-09-29 02:43:00,
2013-09-28 20:53:00,51.0,39.0,-100.00,South,184,2.0,13.0,64,0.00,,,0.00,2.000000,,2013-09-29 02:53:00,
2013-09-28 21:23:00,50.0,37.0,-100.00,NNE,31,5.0,12.0,60,0.00,,,0.00,0.000000,,2013-09-29 03:23:00,
2013-09-28 21:34:00,50.0,37.0,-100.00,NNE,31,5.0,12.0,60,0.00,,,0.00,0.000000,,2013-09-29 03:34:00,
2013-09-28 21:44:00,50.0,37.0,-100.00,NNE,31,5.0,12.0,60,0.00,,,0.00,0.000000,,2013-09-29 03:44:00,
2013-09-28 21:55:00,50.0,37.0,-100.00,NNE,31,5.0,12.0,60,0.00,,,0.00,0.000000,,2013-09-29 03:55:00,
2013-09-28 22:24:00,49.0,37.0,-100.00,SE,137,5.0,17.0,63,0.00,,,0.00,0.000000,,2013-09-29 04:24:00,
2013-09-28 22:34:00,49.0,37.0,-100.00,SE,137,5.0,17.0,63,0.00,,,0.00,0.000000,,2013-09-29 04:34:00,
2013-09-28 22:44:00,49.0,37.0,-100.00,SE,137,5.0,17.0,63,0.00,,,0.00,0.000000,,2013-09-29 04:44:00,
2013-09-28 22:54:00,49.0,37.0,-100.00,SE,137,5.0,17.0,63,0.00,,,0.00,0.000000,,2013-09-29 04:54:00,
2013-09-28 23:22:00,50.0,36.0,-100.00,NNW,328,6.0,21.0,59,0.00,,,0.00,0.000000,,2013-09-29 05:22:00,
2013-09-28 23:34:00,50.0,36.0,-100.00,NNW,328,6.0,21.0,59,0.00,,,0.00,0.000000,,2013-09-29 05:34:00,
2013-09-28 23:43:00,50.0,36.0,-100.00,NNW,328,6.0,21.0,59,0.00,,,0.00,0.000000,,2013-09-29 05:43:00,
2013-09-28 23:52:00,50.0,36.0,-100.00,NNW,328,6.0,21.0,59,0.00,,,0.00,0.000000,,2013-09-29 05:52:00,